Monroe, MI

8:51 PM EDT on May 23, 2017 (GMT -0400)
Custer

Weather History for KTTF - December, 2012

Change the Weather History Date:

Saturday, December 29, 2012

  Actual Average Record
Temperature  
Mean Temperature 26 °F -  
Max Temperature 32 °F 33 °F 64 °F (1984)
Min Temperature 21 °F 19 °F -2 °F (1961)
Degree Days  
Heating Degree Days 38    
Moisture  
Dew Point 26 °F    
Average Humidity 93    
Maximum Humidity 100    
Minimum Humidity 86    
Precipitation  
Precipitation 0.00 in - - ()
Sea Level Pressure  
Sea Level Pressure 29.86 in    
Wind  
Wind Speed 6 mph (NNW)    
Max Wind Speed 9 mph    
Max Gust Speed -    
Visibility 5 miles    
Events Snow    
Averages and records for this station are not official NWS values.
T = Trace of Precipitation, MM = Missing Value Source: NWS Daily Summary

Daily Weather History Graph

Daily Weather History Graph

Search for Another Location

Airport or City:

Trip Planner

Search our weather history database for the weather conditions in past years. The results will help you decide how hot, cold, wet, or windy it might be!

Date:

Astronomy

Dec. 29, 2012 Rise Set
Actual Time 8:01 AM EST 5:11 PM EST
Civil Twilight 7:29 AM EST 5:42 PM EST
Nautical Twilight 6:54 AM EST 6:17 PM EST
Astronomical Twilight 6:20 AM EST 6:51 PM EST
Moon 6:44 PM EST (12/29) 8:32 AM EST (12/29)
Length of Visible Light 10h 13m
Length of Day
9h 09m
Full, 98% of the Moon is Illuminated
Dec 29
Full
Jan 4
Last Quarter
Jan 11
New
Jan 18
First Quarter
Jan 26
Full

Hourly Weather History & Observations

Time (EST) Temp. Windchill Dew Point Humidity Pressure Visibility Wind Dir Wind Speed Gust Speed Precip Events Conditions
12:11 AM 28.4 °F 22.2 °F 26.6 °F 93% 29.90 in 10.0 mi NE 5.8 mph - N/A   Overcast
12:31 AM 28.4 °F 23.3 °F 26.6 °F 93% 29.89 in 10.0 mi NE 4.6 mph - N/A   Overcast
12:52 AM 28.4 °F 23.3 °F 26.6 °F 93% 29.89 in 5.0 mi NE 4.6 mph - N/A Snow Light Snow
1:12 AM 28.4 °F 23.3 °F 26.6 °F 93% 29.88 in 5.0 mi NNE 4.6 mph - N/A Snow Light Snow
1:32 AM 28.4 °F 22.2 °F 26.6 °F 93% 29.86 in 7.0 mi NE 5.8 mph - N/A Snow Light Snow
1:52 AM 28.4 °F 22.2 °F 28.4 °F 100% 29.86 in 1.5 mi NE 5.8 mph - N/A Snow Light Snow
2:12 AM 28.4 °F 22.2 °F 28.4 °F 100% 29.85 in 2.0 mi NE 5.8 mph - N/A Snow Light Snow
2:32 AM 28.4 °F 22.2 °F 28.4 °F 100% 29.85 in 1.2 mi ENE 5.8 mph - N/A Snow Light Snow
2:52 AM 28.4 °F 22.2 °F 28.4 °F 100% 29.84 in 1.2 mi NE 5.8 mph - N/A Snow Light Snow
3:12 AM 28.4 °F 22.2 °F 28.4 °F 100% 29.85 in 1.8 mi ENE 5.8 mph - N/A Snow Light Snow
3:32 AM 28.4 °F 21.2 °F 28.4 °F 100% 29.83 in 1.0 mi NE 6.9 mph - N/A Snow Light Snow
3:52 AM 28.4 °F 21.2 °F 28.4 °F 100% 29.83 in 1.5 mi ENE 6.9 mph - N/A Snow Light Snow
4:13 AM 28.4 °F 23.3 °F 28.4 °F 100% 29.82 in 1.5 mi ENE 4.6 mph - N/A Snow Light Snow
4:33 AM 28.4 °F 23.3 °F 28.4 °F 100% 29.82 in 1.5 mi NNE 4.6 mph - N/A Snow Light Snow
4:53 AM 28.4 °F 23.3 °F 28.4 °F 100% 29.81 in 2.5 mi NE 4.6 mph - N/A Snow Light Snow
5:13 AM 28.4 °F 23.3 °F 28.4 °F 100% 29.80 in 2.0 mi NNE 4.6 mph - N/A Snow Light Snow
5:33 AM 28.4 °F 22.2 °F 28.4 °F 100% 29.79 in 3.0 mi NE 5.8 mph - N/A Snow Light Snow
5:53 AM 28.4 °F 23.3 °F 28.4 °F 100% 29.79 in 2.5 mi NNE 4.6 mph - N/A Snow Light Snow
6:13 AM 28.4 °F 24.6 °F 28.4 °F 100% 29.79 in 2.5 mi NNE 3.5 mph - N/A Snow Light Snow
6:33 AM 28.4 °F 23.3 °F 28.4 °F 100% 29.79 in 2.5 mi NNE 4.6 mph - N/A Snow Light Snow
6:54 AM 28.4 °F 21.2 °F 28.4 °F 100% 29.79 in 2.0 mi North 6.9 mph - N/A Snow Light Snow
7:14 AM 28.4 °F 23.3 °F 26.6 °F 93% 29.79 in 1.8 mi North 4.6 mph - N/A Snow Light Snow
7:34 AM 28.4 °F 22.2 °F 26.6 °F 93% 29.79 in 1.8 mi North 5.8 mph - N/A Snow Light Snow
7:54 AM 28.4 °F 22.2 °F 26.6 °F 93% 29.78 in 2.5 mi North 5.8 mph - N/A Snow Light Snow
8:14 AM 28.4 °F 20.4 °F 26.6 °F 93% 29.78 in 2.0 mi North 8.1 mph - N/A Snow Light Snow
8:34 AM 28.4 °F 20.4 °F 26.6 °F 93% 29.78 in 2.5 mi North 8.1 mph - N/A   Overcast
8:54 AM 28.4 °F 21.2 °F 26.6 °F 93% 29.78 in 2.5 mi North 6.9 mph - N/A Snow Light Snow
9:14 AM 28.4 °F 22.2 °F 26.6 °F 93% 29.78 in 3.0 mi North 5.8 mph - N/A Snow Light Snow
9:34 AM 28.4 °F 21.2 °F 26.6 °F 93% 29.79 in 5.0 mi North 6.9 mph - N/A Snow Light Snow
9:54 AM 28.4 °F 20.4 °F 26.6 °F 93% 29.80 in 5.0 mi North 8.1 mph - N/A   Mostly Cloudy
10:15 AM 28.4 °F 23.3 °F 26.6 °F 93% 29.81 in 7.0 mi North 4.6 mph - N/A   Overcast
10:35 AM 30.2 °F 24.3 °F 26.6 °F 86% 29.82 in 10.0 mi North 5.8 mph - N/A   Overcast
10:55 AM 30.2 °F 24.3 °F 26.6 °F 86% 29.82 in 10.0 mi North 5.8 mph - N/A   Overcast
11:15 AM 30.2 °F 22.6 °F 28.4 °F 93% 29.81 in 5.0 mi North 8.1 mph - N/A   Overcast
11:35 AM 30.2 °F 24.3 °F 28.4 °F 93% 29.82 in 5.0 mi North 5.8 mph - N/A Snow Light Snow
11:55 AM 30.2 °F 24.3 °F 28.4 °F 93% 29.81 in 4.0 mi North 5.8 mph - N/A Snow Light Snow
12:15 PM 30.2 °F 25.4 °F 28.4 °F 93% 29.81 in 3.0 mi NNW 4.6 mph - N/A Snow Light Snow
12:35 PM 30.2 °F 24.3 °F 28.4 °F 93% 29.81 in 3.0 mi NNW 5.8 mph - N/A Snow Light Snow
12:55 PM 30.2 °F 23.4 °F 28.4 °F 93% 29.81 in 1.2 mi WNW 6.9 mph - N/A Snow Light Snow
1:15 PM 32.0 °F 25.6 °F 28.4 °F 87% 29.80 in 3.0 mi NW 6.9 mph - N/A Snow Light Snow
1:36 PM 32.0 °F 25.6 °F 28.4 °F 87% 29.81 in 3.0 mi NW 6.9 mph - N/A Snow Light Snow
1:51 PM 30.2 °F 22.6 °F 28.4 °F 93% 29.81 in 0.5 mi NW 8.1 mph - N/A Snow Light Snow
2:11 PM 30.2 °F 23.4 °F 28.4 °F 93% 29.82 in 4.0 mi NW 6.9 mph - N/A Snow Light Snow
2:31 PM 30.2 °F 21.9 °F 26.6 °F 86% 29.82 in 3.0 mi NW 9.2 mph - N/A Snow Light Snow
2:51 PM 30.2 °F 22.6 °F 26.6 °F 86% 29.82 in 2.5 mi WNW 8.1 mph - N/A Snow Light Snow
3:11 PM 30.2 °F 23.4 °F 26.6 °F 86% 29.83 in 3.0 mi WNW 6.9 mph - N/A Snow Light Snow
3:31 PM 30.2 °F 23.4 °F 26.6 °F 86% 29.84 in 2.0 mi WNW 6.9 mph - N/A Snow Light Snow
3:51 PM 30.2 °F 24.3 °F 28.4 °F 93% 29.85 in 1.8 mi WNW 5.8 mph - N/A Snow Light Snow
4:11 PM 30.2 °F 24.3 °F 28.4 °F 93% 29.85 in 3.0 mi West 5.8 mph - N/A Snow Light Snow
4:32 PM 28.4 °F 22.2 °F 26.6 °F 93% 29.87 in 5.0 mi West 5.8 mph - N/A Snow Light Snow
5:12 PM 28.4 °F 20.4 °F 26.6 °F 93% 29.89 in 7.0 mi West 8.1 mph - N/A Snow Light Snow
5:32 PM 28.4 °F 19.7 °F 26.6 °F 93% 29.90 in 7.0 mi WNW 9.2 mph - N/A Snow Light Snow
5:52 PM 28.4 °F 20.4 °F 26.6 °F 93% 29.91 in 7.0 mi WNW 8.1 mph - N/A Snow Light Snow
6:12 PM 28.4 °F 20.4 °F 26.6 °F 93% 29.91 in 5.0 mi WNW 8.1 mph - N/A Snow Light Snow
6:32 PM 28.4 °F 21.2 °F 26.6 °F 93% 29.92 in 4.0 mi WNW 6.9 mph - N/A Snow Light Snow
6:52 PM 28.4 °F 21.2 °F 26.6 °F 93% 29.93 in 4.0 mi West 6.9 mph - N/A Snow Light Snow
7:12 PM 28.4 °F 20.4 °F 26.6 °F 93% 29.94 in 7.0 mi WNW 8.1 mph - N/A Snow Light Snow
7:32 PM 28.4 °F 20.4 °F 26.6 °F 93% 29.95 in 10.0 mi WNW 8.1 mph - N/A   Overcast
7:53 PM 28.4 °F 20.4 °F 26.6 °F 93% 29.95 in 10.0 mi WNW 8.1 mph - N/A   Overcast
8:13 PM 28.4 °F 21.2 °F 24.8 °F 86% 29.96 in 10.0 mi WNW 6.9 mph - N/A   Overcast
8:33 PM 26.6 °F 18.2 °F 24.8 °F 93% 29.97 in 10.0 mi WNW 8.1 mph - N/A   Mostly Cloudy
8:53 PM 24.8 °F 16.9 °F 23.0 °F 93% 29.97 in 10.0 mi WNW 6.9 mph - N/A   Mostly Cloudy
9:13 PM 24.8 °F 16.9 °F 21.2 °F 86% 29.98 in 10.0 mi West 6.9 mph - N/A   Mostly Cloudy
9:33 PM 24.8 °F 16.1 °F 21.2 °F 86% 29.99 in 10.0 mi West 8.1 mph - N/A   Overcast
9:53 PM 24.8 °F 16.9 °F 21.2 °F 86% 29.99 in 10.0 mi West 6.9 mph - N/A   Overcast
10:13 PM 24.8 °F 16.1 °F 21.2 °F 86% 30.00 in 10.0 mi West 8.1 mph - N/A   Overcast
10:33 PM 24.8 °F 16.9 °F 21.2 °F 86% 30.01 in 10.0 mi West 6.9 mph - N/A   Overcast
10:54 PM 23.0 °F 15.8 °F 21.2 °F 93% 30.02 in 10.0 mi WNW 5.8 mph - N/A   Mostly Cloudy
11:14 PM 21.2 °F 11.7 °F 19.4 °F 93% 30.03 in 10.0 mi WNW 8.1 mph - N/A   Clear
11:34 PM 21.2 °F 11.7 °F 19.4 °F 93% 30.04 in 10.0 mi West 8.1 mph - N/A   Clear
11:54 PM 21.2 °F 13.6 °F 19.4 °F 93% 30.05 in 10.0 mi West 5.8 mph - N/A   Clear